Location: Arborea
(39.7744°N, 8.5819°E)
Time: 19:37:50
(UTC+00:00)

CZ-2C DEB - Pass Details

Date: 22 August 2022
Orbit: 681 x 927 km, 97.9° (Epoch: 03 October)

Event Time Altitude Azimuth Distance (km) Brightness Sun altitude
Rises 23:04:17 0° 348° (NNW) 3,298 ? -38.4°
Reaches altitude 10° 23:08:54 10° 310° (NW) 2,434 ? -38.5°
Maximum altitude 23:09:50 10° 300° (WNW) 2,415 ? -38.5°
Enters shadow 23:10:31 10° 293° (WNW) 2,441 ? -38.5°
